Year,Month,Day,Hour,Minute,Value (Times are PST for temperature in C)
2011,09,11,00,00,14.00
2011,09,11,00,01,14.00
2011,09,11,00,02,14.00
2011,09,11,00,03,14.00
2011,09,11,00,04,14.00
2011,09,11,00,05,14.00
2011,09,11,00,06,14.10
2011,09,11,00,07,14.10
2011,09,11,00,08,14.10
2011,09,11,00,09,14.10
2011,09,11,00,10,14.10
2011,09,11,00,11,14.00
2011,09,11,00,12,14.00
2011,09,11,00,13,13.90
2011,09,11,00,14,13.90
2011,09,11,00,15,13.90
2011,09,11,00,16,13.80
2011,09,11,00,17,13.80
2011,09,11,00,18,13.80
2011,09,11,00,19,13.80
2011,09,11,00,20,13.80
2011,09,11,00,21,13.80
2011,09,11,00,22,13.80
2011,09,11,00,23,13.80
2011,09,11,00,24,13.80
2011,09,11,00,25,13.80
2011,09,11,00,26,13.80
2011,09,11,00,27,13.80
2011,09,11,00,28,13.80
2011,09,11,00,29,13.80
2011,09,11,00,30,13.80
2011,09,11,00,31,13.80
2011,09,11,00,32,13.80
2011,09,11,00,33,13.90
2011,09,11,00,34,13.90
2011,09,11,00,35,13.90
2011,09,11,00,36,13.90
2011,09,11,00,37,13.90
2011,09,11,00,38,13.80
2011,09,11,00,39,13.80
2011,09,11,00,40,13.80
2011,09,11,00,41,13.80
2011,09,11,00,42,13.80
2011,09,11,00,43,13.80
2011,09,11,00,44,13.80
2011,09,11,00,45,13.80
2011,09,11,00,46,13.80
2011,09,11,00,47,13.90
2011,09,11,00,48,13.90
2011,09,11,00,49,13.90
2011,09,11,00,50,13.90
2011,09,11,00,51,13.90
2011,09,11,00,52,13.90
2011,09,11,00,53,13.90
2011,09,11,00,54,13.90
2011,09,11,00,55,13.80
2011,09,11,00,56,13.90
2011,09,11,00,57,13.90
2011,09,11,00,58,13.90
2011,09,11,00,59,13.90
2011,09,11,01,00,13.90
2011,09,11,01,01,13.90
2011,09,11,01,02,13.90
2011,09,11,01,03,13.90
2011,09,11,01,04,13.90
2011,09,11,01,05,13.90
2011,09,11,01,06,13.90
2011,09,11,01,07,13.90
2011,09,11,01,08,13.80
2011,09,11,01,09,13.80
2011,09,11,01,10,13.80
2011,09,11,01,11,13.80
2011,09,11,01,12,13.80
2011,09,11,01,13,13.80
2011,09,11,01,14,13.70
2011,09,11,01,15,13.70
2011,09,11,01,16,13.70
2011,09,11,01,17,13.70
2011,09,11,01,18,13.70
2011,09,11,01,19,13.70
2011,09,11,01,20,13.60
2011,09,11,01,21,13.60
2011,09,11,01,22,13.60
2011,09,11,01,23,13.60
2011,09,11,01,24,13.60
2011,09,11,01,25,13.60
2011,09,11,01,26,13.60
2011,09,11,01,27,13.60
2011,09,11,01,28,13.60
2011,09,11,01,29,13.60
2011,09,11,01,30,13.60
2011,09,11,01,31,13.60
2011,09,11,01,32,13.60
2011,09,11,01,33,13.60
2011,09,11,01,34,13.60
2011,09,11,01,35,13.60
2011,09,11,01,36,13.60
2011,09,11,01,37,13.60
2011,09,11,01,38,13.60
2011,09,11,01,39,13.60
2011,09,11,01,40,13.50
2011,09,11,01,41,13.50
2011,09,11,01,42,13.50
2011,09,11,01,43,13.40
2011,09,11,01,44,13.40
2011,09,11,01,45,13.50
2011,09,11,01,46,13.50
2011,09,11,01,47,13.50
2011,09,11,01,48,13.50
2011,09,11,01,49,13.50
2011,09,11,01,50,13.50
2011,09,11,01,51,13.50
2011,09,11,01,52,13.50
2011,09,11,01,53,13.50
2011,09,11,01,54,13.60
2011,09,11,01,55,13.60
2011,09,11,01,56,13.60
2011,09,11,01,57,13.60
2011,09,11,01,58,13.60
2011,09,11,01,59,13.60
2011,09,11,02,00,13.70
2011,09,11,02,01,13.70
2011,09,11,02,02,13.70
2011,09,11,02,03,13.70
2011,09,11,02,04,13.70
2011,09,11,02,05,13.70
2011,09,11,02,06,13.70
2011,09,11,02,07,13.70
2011,09,11,02,08,13.60
2011,09,11,02,09,13.60
2011,09,11,02,10,13.60
2011,09,11,02,11,13.60
2011,09,11,02,12,13.50
2011,09,11,02,13,13.50
2011,09,11,02,14,13.50
2011,09,11,02,15,13.40
2011,09,11,02,16,13.40
2011,09,11,02,17,13.40
2011,09,11,02,18,13.40
2011,09,11,02,19,13.40
2011,09,11,02,20,13.40
2011,09,11,02,21,13.40
2011,09,11,02,22,13.40
2011,09,11,02,23,13.40
2011,09,11,02,24,13.50
2011,09,11,02,25,13.50
2011,09,11,02,26,13.50
2011,09,11,02,27,13.50
2011,09,11,02,28,13.50
2011,09,11,02,29,13.50
2011,09,11,02,30,13.50
2011,09,11,02,31,13.50
2011,09,11,02,32,13.50
2011,09,11,02,33,13.50
2011,09,11,02,34,13.50
2011,09,11,02,35,13.40
2011,09,11,02,36,13.40
2011,09,11,02,37,13.40
2011,09,11,02,38,13.30
2011,09,11,02,39,13.30
2011,09,11,02,40,13.30
2011,09,11,02,41,13.20
2011,09,11,02,42,13.20
2011,09,11,02,43,13.20
2011,09,11,02,44,13.20
2011,09,11,02,45,13.20
2011,09,11,02,46,13.10
2011,09,11,02,47,13.10
2011,09,11,02,48,13.10
2011,09,11,02,49,13.10
2011,09,11,02,50,13.10
2011,09,11,02,51,13.10
2011,09,11,02,52,13.10
2011,09,11,02,53,13.10
2011,09,11,02,54,13.10
2011,09,11,02,55,13.20
2011,09,11,02,56,13.20
2011,09,11,02,57,13.30
2011,09,11,02,58,13.30
2011,09,11,02,59,13.30
2011,09,11,03,00,13.30
2011,09,11,03,01,13.30
2011,09,11,03,02,13.20
2011,09,11,03,03,13.20
2011,09,11,03,04,13.20
2011,09,11,03,05,13.20
2011,09,11,03,06,13.20
2011,09,11,03,07,13.20
2011,09,11,03,08,13.20
2011,09,11,03,09,13.20
2011,09,11,03,10,13.20
2011,09,11,03,11,13.20
2011,09,11,03,12,13.20
2011,09,11,03,13,13.20
2011,09,11,03,14,13.20
2011,09,11,03,15,13.20
2011,09,11,03,16,13.20
2011,09,11,03,17,13.20
2011,09,11,03,18,13.20
2011,09,11,03,19,13.20
2011,09,11,03,20,13.20
2011,09,11,03,21,13.20
2011,09,11,03,22,13.30
2011,09,11,03,23,13.30
2011,09,11,03,24,13.30
2011,09,11,03,25,13.30
2011,09,11,03,26,13.30
2011,09,11,03,27,13.30
2011,09,11,03,28,13.40
2011,09,11,03,29,13.40
2011,09,11,03,30,13.40
2011,09,11,03,31,13.30
2011,09,11,03,32,13.30
2011,09,11,03,33,13.40
2011,09,11,03,34,13.30
2011,09,11,03,35,13.30
2011,09,11,03,36,13.30
2011,09,11,03,37,13.30
2011,09,11,03,38,13.30
2011,09,11,03,39,13.30
2011,09,11,03,40,13.30
2011,09,11,03,41,13.30
2011,09,11,03,42,13.20
2011,09,11,03,43,13.20
2011,09,11,03,44,13.20
2011,09,11,03,45,13.20
2011,09,11,03,46,13.20
2011,09,11,03,47,13.20
2011,09,11,03,48,13.20
2011,09,11,03,49,13.20
2011,09,11,03,50,13.20
2011,09,11,03,51,13.20
2011,09,11,03,52,13.30
2011,09,11,03,53,13.30
2011,09,11,03,54,13.30
2011,09,11,03,55,13.30
2011,09,11,03,56,13.30
2011,09,11,03,57,13.30
2011,09,11,03,58,13.30
2011,09,11,03,59,13.30
2011,09,11,04,00,13.30
2011,09,11,04,01,13.30
2011,09,11,04,02,13.30
2011,09,11,04,03,13.30
2011,09,11,04,04,13.30
2011,09,11,04,05,13.30
2011,09,11,04,06,13.30
2011,09,11,04,07,13.30
2011,09,11,04,08,13.20
2011,09,11,04,09,13.20
2011,09,11,04,10,13.20
2011,09,11,04,11,13.20
2011,09,11,04,12,13.20
2011,09,11,04,13,13.20
2011,09,11,04,14,13.20
2011,09,11,04,15,13.20
2011,09,11,04,16,13.20
2011,09,11,04,17,13.30
2011,09,11,04,18,13.30
2011,09,11,04,19,13.30
2011,09,11,04,20,13.40
2011,09,11,04,21,13.40
2011,09,11,04,22,13.40
2011,09,11,04,23,13.50
2011,09,11,04,24,13.50
2011,09,11,04,25,13.60
2011,09,11,04,26,13.60
2011,09,11,04,27,13.50
2011,09,11,04,28,13.60
2011,09,11,04,29,13.60
2011,09,11,04,30,13.70
2011,09,11,04,31,13.70
2011,09,11,04,32,13.70
2011,09,11,04,33,13.70
2011,09,11,04,34,13.70
2011,09,11,04,35,13.70
2011,09,11,04,36,13.80
2011,09,11,04,37,13.80
2011,09,11,04,38,13.80
2011,09,11,04,39,13.80
2011,09,11,04,40,13.80
2011,09,11,04,41,13.80
2011,09,11,04,42,13.80
2011,09,11,04,43,13.80
2011,09,11,04,44,13.80
2011,09,11,04,45,13.80
2011,09,11,04,46,13.80
2011,09,11,04,47,13.80
2011,09,11,04,48,13.70
2011,09,11,04,49,13.70
2011,09,11,04,50,13.70
2011,09,11,04,51,13.70
2011,09,11,04,52,13.70
2011,09,11,04,53,13.70
2011,09,11,04,54,13.70
2011,09,11,04,55,13.60
2011,09,11,04,56,13.60
2011,09,11,04,57,13.60
2011,09,11,04,58,13.50
2011,09,11,04,59,13.50
2011,09,11,05,00,13.50
2011,09,11,05,01,13.40
2011,09,11,05,02,13.40
2011,09,11,05,03,13.40
2011,09,11,05,04,13.40
2011,09,11,05,05,13.40
2011,09,11,05,06,13.40
2011,09,11,05,07,13.40
2011,09,11,05,08,13.40
2011,09,11,05,09,13.40
2011,09,11,05,10,13.40
2011,09,11,05,11,13.40
2011,09,11,05,12,13.40
2011,09,11,05,13,13.40
2011,09,11,05,14,13.30
2011,09,11,05,15,13.30
2011,09,11,05,16,13.30
2011,09,11,05,17,13.30
2011,09,11,05,18,13.30
2011,09,11,05,19,13.30
2011,09,11,05,20,13.30
2011,09,11,05,21,13.30
2011,09,11,05,22,13.30
2011,09,11,05,23,13.30
2011,09,11,05,24,13.20
2011,09,11,05,25,13.20
2011,09,11,05,26,13.20
2011,09,11,05,27,13.20
2011,09,11,05,28,13.20
2011,09,11,05,29,13.20
2011,09,11,05,30,13.20
2011,09,11,05,31,13.20
2011,09,11,05,32,13.20
2011,09,11,05,33,13.20
2011,09,11,05,34,13.20
2011,09,11,05,35,13.10
2011,09,11,05,36,13.10
2011,09,11,05,37,13.10
2011,09,11,05,38,13.10
2011,09,11,05,39,13.10
2011,09,11,05,40,13.20
2011,09,11,05,41,13.10
2011,09,11,05,42,13.20
2011,09,11,05,43,13.20
2011,09,11,05,44,13.20
2011,09,11,05,45,13.20
2011,09,11,05,46,13.20
2011,09,11,05,47,13.30
2011,09,11,05,48,13.30
2011,09,11,05,49,13.30
2011,09,11,05,50,13.40
2011,09,11,05,51,13.40
2011,09,11,05,52,13.40
2011,09,11,05,53,13.50
2011,09,11,05,54,13.50
2011,09,11,05,55,13.50
2011,09,11,05,56,13.50
2011,09,11,05,57,13.50
2011,09,11,05,58,13.50
2011,09,11,05,59,13.60
2011,09,11,06,00,13.60
2011,09,11,06,01,13.70
2011,09,11,06,02,13.70
2011,09,11,06,03,13.80
2011,09,11,06,04,13.90
2011,09,11,06,05,13.90
2011,09,11,06,06,13.90
2011,09,11,06,07,13.90
2011,09,11,06,08,14.00
2011,09,11,06,09,14.00
2011,09,11,06,10,14.00
2011,09,11,06,11,13.90
2011,09,11,06,12,13.90
2011,09,11,06,13,13.90
2011,09,11,06,14,13.90
2011,09,11,06,15,13.90
2011,09,11,06,16,13.90
2011,09,11,06,17,13.90
2011,09,11,06,18,13.90
2011,09,11,06,19,14.00
2011,09,11,06,20,14.00
2011,09,11,06,21,14.00
2011,09,11,06,22,14.00
2011,09,11,06,23,14.00
2011,09,11,06,24,13.90
2011,09,11,06,25,13.90
2011,09,11,06,26,13.90
2011,09,11,06,27,13.90
2011,09,11,06,28,13.90
2011,09,11,06,29,14.00
2011,09,11,06,30,14.00
2011,09,11,06,31,13.90
2011,09,11,06,32,13.90
2011,09,11,06,33,13.90
2011,09,11,06,34,13.90
2011,09,11,06,35,13.80
2011,09,11,06,36,13.80
2011,09,11,06,37,13.80
2011,09,11,06,38,13.80
2011,09,11,06,39,13.80
2011,09,11,06,40,13.70
2011,09,11,06,41,13.70
2011,09,11,06,42,13.70
2011,09,11,06,43,13.60
2011,09,11,06,44,13.60
2011,09,11,06,45,13.50
2011,09,11,06,46,13.50
2011,09,11,06,47,13.50
2011,09,11,06,48,13.40
2011,09,11,06,49,13.40
2011,09,11,06,50,13.30
2011,09,11,06,51,13.30
2011,09,11,06,52,13.30
2011,09,11,06,53,13.30
2011,09,11,06,54,13.30
2011,09,11,06,55,13.30
2011,09,11,06,56,13.30
2011,09,11,06,57,13.30
2011,09,11,06,58,13.30
2011,09,11,06,59,13.30
2011,09,11,07,00,13.30
2011,09,11,07,01,13.30
2011,09,11,07,02,13.30
2011,09,11,07,03,13.30
2011,09,11,07,04,13.30
2011,09,11,07,05,13.30
2011,09,11,07,06,13.30
2011,09,11,07,07,13.30
2011,09,11,07,08,13.30
2011,09,11,07,09,13.30
2011,09,11,07,10,13.30
2011,09,11,07,11,13.30
2011,09,11,07,12,13.30
2011,09,11,07,13,13.30
2011,09,11,07,14,13.30
2011,09,11,07,15,13.30
2011,09,11,07,16,13.30
2011,09,11,07,17,13.30
2011,09,11,07,18,13.30
2011,09,11,07,19,13.30
2011,09,11,07,20,13.30
2011,09,11,07,21,13.30
2011,09,11,07,22,13.30
2011,09,11,07,23,13.30
2011,09,11,07,24,13.30
2011,09,11,07,25,13.40
2011,09,11,07,26,13.30
2011,09,11,07,27,13.40
2011,09,11,07,28,13.40
2011,09,11,07,29,13.40
2011,09,11,07,30,13.40
2011,09,11,07,31,13.40
2011,09,11,07,32,13.40
2011,09,11,07,33,13.40
2011,09,11,07,34,13.40
2011,09,11,07,35,13.40
2011,09,11,07,36,13.40
2011,09,11,07,37,13.40
2011,09,11,07,38,13.40
2011,09,11,07,39,13.40
2011,09,11,07,40,13.40
2011,09,11,07,41,13.40
2011,09,11,07,42,13.50
2011,09,11,07,43,13.50
2011,09,11,07,44,13.50
2011,09,11,07,45,13.60
2011,09,11,07,46,13.60
2011,09,11,07,47,13.60
2011,09,11,07,48,13.60
2011,09,11,07,49,13.70
2011,09,11,07,50,13.70
2011,09,11,07,51,13.80
2011,09,11,07,52,13.80
2011,09,11,07,53,13.80
2011,09,11,07,54,13.90
2011,09,11,07,55,14.00
2011,09,11,07,56,14.00
2011,09,11,07,57,14.10
2011,09,11,07,58,14.10
2011,09,11,07,59,14.20
2011,09,11,08,00,14.30
2011,09,11,08,01,14.30
2011,09,11,08,02,14.40
2011,09,11,08,03,14.40
2011,09,11,08,04,14.50
2011,09,11,08,05,14.60
2011,09,11,08,06,14.70
2011,09,11,08,07,14.90
2011,09,11,08,08,15.00
2011,09,11,08,09,15.00
2011,09,11,08,10,15.10
2011,09,11,08,11,15.20
2011,09,11,08,12,15.30
2011,09,11,08,13,15.50
2011,09,11,08,14,15.60
2011,09,11,08,15,15.80
2011,09,11,08,16,15.90
2011,09,11,08,17,16.00
2011,09,11,08,18,16.10
2011,09,11,08,19,16.20
2011,09,11,08,20,16.30
2011,09,11,08,21,16.40
2011,09,11,08,22,16.50
2011,09,11,08,23,16.60
2011,09,11,08,24,16.70
2011,09,11,08,25,16.80
2011,09,11,08,26,16.80
2011,09,11,08,27,16.90
2011,09,11,08,28,17.00
2011,09,11,08,29,17.00
2011,09,11,08,30,17.10
2011,09,11,08,31,17.20
2011,09,11,08,32,17.20
2011,09,11,08,33,17.20
2011,09,11,08,34,17.30
2011,09,11,08,35,17.40
2011,09,11,08,36,17.40
2011,09,11,08,37,17.40
2011,09,11,08,38,17.50
2011,09,11,08,39,17.60
2011,09,11,08,40,17.60
2011,09,11,08,41,17.70
2011,09,11,08,42,17.70
2011,09,11,08,43,17.80
2011,09,11,08,44,17.80
2011,09,11,08,45,17.90
2011,09,11,08,46,18.00
2011,09,11,08,47,18.00
2011,09,11,08,48,18.10
2011,09,11,08,49,18.20
2011,09,11,08,50,18.20
2011,09,11,08,51,18.30
2011,09,11,08,52,18.30
2011,09,11,08,53,18.40
2011,09,11,08,54,18.50
2011,09,11,08,55,18.50
2011,09,11,08,56,18.60
2011,09,11,08,57,18.70
2011,09,11,08,58,18.80
2011,09,11,08,59,19.00
2011,09,11,09,00,19.10
2011,09,11,09,01,19.20
2011,09,11,09,02,19.30
2011,09,11,09,03,19.30
2011,09,11,09,04,19.40
2011,09,11,09,05,19.50
2011,09,11,09,06,19.50
2011,09,11,09,07,19.60
2011,09,11,09,08,19.60
2011,09,11,09,09,19.70
2011,09,11,09,10,19.70
2011,09,11,09,11,19.70
2011,09,11,09,12,19.70
2011,09,11,09,13,19.70
2011,09,11,09,14,19.70
2011,09,11,09,15,19.70
2011,09,11,09,16,19.70
2011,09,11,09,17,19.70
2011,09,11,09,18,19.70
2011,09,11,09,19,19.70
2011,09,11,13,00,24.90
2011,09,11,13,01,24.90
2011,09,11,13,02,24.80
2011,09,11,13,03,24.80
2011,09,11,13,04,24.70
2011,09,11,13,05,24.60
2011,09,11,13,06,24.60
2011,09,11,13,07,24.50
2011,09,11,13,08,24.50
2011,09,11,13,09,24.50
2011,09,11,13,10,24.50
2011,09,11,13,11,24.50
2011,09,11,13,12,24.60
2011,09,11,13,13,24.60
2011,09,11,13,14,24.50
2011,09,11,13,15,24.50
2011,09,11,13,16,24.50
2011,09,11,13,17,24.50
2011,09,11,13,18,24.50
2011,09,11,13,19,24.60
2011,09,11,13,20,24.60
2011,09,11,13,21,24.70
2011,09,11,13,22,24.80
2011,09,11,13,23,24.80
2011,09,11,13,24,24.80
2011,09,11,13,25,24.80
2011,09,11,13,26,24.80
2011,09,11,13,27,24.90
2011,09,11,13,28,24.90
2011,09,11,13,29,24.90
2011,09,11,13,30,25.00
2011,09,11,13,31,25.10
2011,09,11,13,32,25.10
2011,09,11,13,33,25.20
2011,09,11,13,34,25.20
2011,09,11,13,35,25.10
2011,09,11,13,36,25.10
2011,09,11,13,37,25.10
2011,09,11,13,38,25.10
2011,09,11,13,39,25.20
2011,09,11,13,40,25.20
2011,09,11,13,41,25.10
2011,09,11,13,42,25.10
2011,09,11,13,43,25.10
2011,09,11,13,44,25.10
2011,09,11,13,45,25.20
2011,09,11,13,46,25.20
2011,09,11,13,47,25.30
2011,09,11,13,48,25.30
2011,09,11,13,49,25.40
2011,09,11,13,50,25.50
2011,09,11,13,51,25.60
2011,09,11,13,52,25.70
2011,09,11,13,53,25.80
2011,09,11,13,54,25.80
2011,09,11,13,55,25.80
2011,09,11,13,56,25.80
2011,09,11,13,57,25.80
2011,09,11,13,58,25.80
2011,09,11,13,59,25.70
2011,09,11,14,00,25.70
2011,09,11,14,01,25.70
2011,09,11,14,02,25.70
2011,09,11,14,03,25.80
2011,09,11,14,04,25.80
2011,09,11,14,05,25.70
2011,09,11,14,06,25.60
2011,09,11,14,07,25.60
2011,09,11,14,08,25.50
2011,09,11,14,09,25.50
2011,09,11,14,10,25.50
2011,09,11,14,11,25.60
2011,09,11,14,12,25.60
2011,09,11,14,13,25.60
2011,09,11,14,14,25.60
2011,09,11,14,15,25.60
2011,09,11,14,16,25.70
2011,09,11,14,17,25.70
2011,09,11,14,18,25.70
2011,09,11,14,19,25.80
2011,09,11,14,20,25.90
2011,09,11,14,21,26.00
2011,09,11,14,22,26.10
2011,09,11,14,23,26.10
2011,09,11,14,24,26.10
2011,09,11,14,25,26.10
2011,09,11,14,26,26.00
2011,09,11,14,27,25.90
2011,09,11,14,28,25.90
2011,09,11,14,29,25.90
2011,09,11,14,30,25.90
2011,09,11,14,31,25.80
2011,09,11,14,32,25.80
2011,09,11,14,33,25.70
2011,09,11,14,34,25.70
2011,09,11,14,35,25.60
2011,09,11,14,36,25.60
2011,09,11,14,37,25.60
2011,09,11,14,38,25.60
2011,09,11,14,39,25.60
2011,09,11,14,40,25.50
2011,09,11,14,41,25.40
2011,09,11,14,42,25.50
2011,09,11,14,43,25.50
2011,09,11,14,44,25.60
2011,09,11,14,45,25.60
2011,09,11,14,46,25.70
2011,09,11,14,47,25.70
2011,09,11,14,48,25.70
2011,09,11,14,49,25.60
2011,09,11,14,50,25.50
2011,09,11,14,51,25.40
2011,09,11,14,52,25.30
2011,09,11,14,53,25.20
2011,09,11,14,54,25.10
2011,09,11,14,55,25.10
2011,09,11,14,56,25.10
2011,09,11,14,57,25.20
2011,09,11,14,58,25.30
2011,09,11,14,59,25.30
2011,09,11,15,00,25.40
2011,09,11,15,01,25.30
2011,09,11,15,02,25.30
2011,09,11,15,03,25.30
2011,09,11,15,04,25.30
2011,09,11,15,05,25.30
2011,09,11,15,06,25.30
2011,09,11,15,07,25.30
2011,09,11,15,08,25.40
2011,09,11,15,09,25.50
2011,09,11,15,10,25.50
2011,09,11,15,11,25.60
2011,09,11,15,12,25.60
2011,09,11,15,13,25.60
2011,09,11,15,14,25.50
2011,09,11,15,15,25.50
2011,09,11,15,16,25.40
2011,09,11,15,17,25.40
2011,09,11,15,18,25.30
2011,09,11,15,19,25.20
2011,09,11,15,20,25.00
2011,09,11,15,21,25.00
2011,09,11,15,22,24.90
2011,09,11,15,23,24.80
2011,09,11,15,24,24.80
2011,09,11,15,25,24.80
2011,09,11,15,26,24.70
2011,09,11,15,27,24.70
2011,09,11,15,28,24.70
2011,09,11,15,29,24.70
2011,09,11,15,30,24.70
2011,09,11,15,31,24.70
2011,09,11,15,32,24.60
2011,09,11,15,33,24.60
2011,09,11,15,34,24.60
2011,09,11,15,35,24.70
2011,09,11,15,36,24.70
2011,09,11,15,37,24.80
2011,09,11,15,38,24.80
2011,09,11,15,39,24.80
2011,09,11,15,40,24.90
2011,09,11,15,41,25.00
2011,09,11,15,42,25.00
2011,09,11,15,43,25.10
2011,09,11,15,44,25.10
2011,09,11,15,45,25.10
2011,09,11,15,46,25.00
2011,09,11,15,47,24.90
2011,09,11,15,48,24.90
2011,09,11,15,49,24.90
2011,09,11,15,50,24.90
2011,09,11,15,51,24.90
2011,09,11,15,52,25.00
2011,09,11,15,53,25.10
2011,09,11,15,54,25.10
2011,09,11,15,55,25.20
2011,09,11,15,56,25.20
2011,09,11,15,57,25.20
2011,09,11,15,58,25.10
2011,09,11,15,59,25.10
2011,09,11,16,00,25.10
2011,09,11,16,01,25.00
2011,09,11,16,02,25.10
2011,09,11,16,03,25.10
2011,09,11,16,04,25.20
2011,09,11,16,05,25.20
2011,09,11,16,06,25.30
2011,09,11,16,07,25.40
2011,09,11,16,08,25.50
2011,09,11,16,09,25.50
2011,09,11,16,10,25.70
2011,09,11,16,11,25.80
2011,09,11,16,12,25.90
2011,09,11,16,13,25.90
2011,09,11,16,14,25.90
2011,09,11,16,15,25.90
2011,09,11,16,16,25.90
2011,09,11,16,17,25.90
2011,09,11,16,18,26.00
2011,09,11,16,19,26.00
2011,09,11,16,20,26.10
2011,09,11,16,21,26.20
2011,09,11,16,22,26.20
2011,09,11,16,23,26.20
2011,09,11,16,24,26.30
2011,09,11,16,25,26.30
2011,09,11,16,26,26.30
2011,09,11,16,27,26.30
2011,09,11,16,28,26.30
2011,09,11,16,29,26.30
2011,09,11,16,30,26.30
2011,09,11,16,31,26.30
2011,09,11,16,32,26.30
2011,09,11,16,33,26.30
2011,09,11,16,34,26.30
2011,09,11,16,35,26.30
2011,09,11,16,36,26.30
2011,09,11,16,37,26.40
2011,09,11,16,38,26.30
2011,09,11,16,39,26.30
2011,09,11,16,40,26.40
2011,09,11,16,41,26.40
2011,09,11,16,42,26.40
2011,09,11,16,43,26.40
2011,09,11,16,44,26.40
2011,09,11,16,45,26.40
2011,09,11,16,46,26.40
2011,09,11,16,47,26.40
2011,09,11,16,48,26.50
2011,09,11,16,49,26.50
2011,09,11,16,50,26.60
2011,09,11,16,51,26.60
2011,09,11,16,52,26.60
2011,09,11,16,53,26.50
2011,09,11,16,54,26.40
2011,09,11,16,55,26.40
2011,09,11,16,56,26.40
2011,09,11,16,57,26.30
2011,09,11,16,58,26.30
2011,09,11,16,59,26.30
2011,09,11,17,00,26.30
2011,09,11,17,01,26.30
2011,09,11,17,02,26.30
2011,09,11,17,03,26.30
2011,09,11,17,04,26.30
2011,09,11,17,05,26.30
2011,09,11,17,06,26.30
2011,09,11,17,07,26.30
2011,09,11,17,08,26.30
2011,09,11,17,09,26.30
2011,09,11,17,10,26.30
2011,09,11,17,11,26.30
2011,09,11,17,12,26.30
2011,09,11,17,13,26.40
2011,09,11,17,14,26.40
2011,09,11,17,15,26.30
2011,09,11,17,16,26.20
2011,09,11,17,17,26.20
2011,09,11,17,18,26.20
2011,09,11,17,19,26.20
2011,09,11,17,20,26.20
2011,09,11,17,21,26.20
2011,09,11,17,22,26.20
2011,09,11,17,23,26.20
2011,09,11,17,24,26.20
2011,09,11,17,25,26.20
2011,09,11,17,26,26.20
2011,09,11,17,27,26.10
2011,09,11,17,28,26.10
2011,09,11,17,29,26.00
2011,09,11,17,30,26.00
2011,09,11,17,31,25.90
2011,09,11,17,32,25.90
2011,09,11,17,33,25.90
2011,09,11,17,34,25.90
2011,09,11,17,35,25.90
2011,09,11,17,36,25.90
2011,09,11,17,37,25.90
2011,09,11,17,38,25.80
2011,09,11,17,39,25.70
2011,09,11,17,40,25.60
2011,09,11,17,41,25.50
2011,09,11,17,42,25.40
2011,09,11,17,43,25.30
2011,09,11,17,44,25.10
2011,09,11,17,45,25.00
2011,09,11,17,46,24.90
2011,09,11,17,47,24.80
2011,09,11,17,48,24.70
2011,09,11,17,49,24.70
2011,09,11,17,50,24.60
2011,09,11,17,51,24.60
2011,09,11,17,52,24.60
2011,09,11,17,53,24.60
2011,09,11,17,54,24.70
2011,09,11,17,55,24.70
2011,09,11,17,56,24.70
2011,09,11,17,57,24.70
2011,09,11,17,58,24.70
2011,09,11,17,59,24.80
2011,09,11,18,00,24.80
2011,09,11,18,01,24.80
2011,09,11,18,02,24.90
2011,09,11,18,03,24.90
2011,09,11,18,04,24.90
2011,09,11,18,05,24.90
2011,09,11,18,06,24.90
2011,09,11,18,07,24.90
2011,09,11,18,08,24.90
2011,09,11,18,09,25.00
2011,09,11,18,10,25.00
2011,09,11,18,11,25.10
2011,09,11,18,12,25.10
2011,09,11,18,13,25.10
2011,09,11,18,14,25.20
2011,09,11,18,15,25.20
2011,09,11,18,16,25.20
2011,09,11,18,17,25.20
2011,09,11,18,18,25.20
2011,09,11,18,19,25.20
2011,09,11,18,20,25.20
2011,09,11,18,21,25.20
2011,09,11,18,22,25.20
2011,09,11,18,23,25.20
2011,09,11,18,24,25.20
2011,09,11,18,25,25.10
2011,09,11,18,26,25.10
2011,09,11,18,27,25.10
2011,09,11,18,28,25.10
2011,09,11,18,29,25.00
2011,09,11,18,30,25.00
2011,09,11,18,31,24.90
2011,09,11,18,32,24.90
2011,09,11,18,33,24.90
2011,09,11,18,34,24.80
2011,09,11,18,35,24.80
2011,09,11,18,36,24.70
2011,09,11,18,37,24.60
2011,09,11,18,38,24.50
2011,09,11,18,39,24.40
2011,09,11,18,40,24.30
2011,09,11,18,41,24.30
2011,09,11,18,42,24.20
2011,09,11,18,43,24.10
2011,09,11,18,44,23.90
2011,09,11,18,45,23.70
2011,09,11,18,46,23.40
2011,09,11,18,47,23.20
2011,09,11,18,48,23.00
2011,09,11,18,49,22.80
2011,09,11,18,50,22.60
2011,09,11,18,51,22.50
2011,09,11,18,52,22.40
2011,09,11,18,53,22.30
2011,09,11,18,54,22.30
2011,09,11,18,55,22.20
2011,09,11,18,56,22.20
2011,09,11,18,57,22.20
2011,09,11,18,58,22.20
2011,09,11,18,59,22.10
2011,09,11,19,00,22.10
2011,09,11,19,01,22.10
2011,09,11,19,02,22.10
2011,09,11,19,03,22.00
2011,09,11,19,04,22.00
2011,09,11,19,05,21.90
2011,09,11,19,06,21.80
2011,09,11,19,07,21.80
2011,09,11,19,08,21.70
2011,09,11,19,09,21.60
2011,09,11,19,10,21.50
2011,09,11,19,11,21.50
2011,09,11,19,12,21.40
2011,09,11,19,13,21.40
2011,09,11,19,14,21.30
2011,09,11,19,15,21.30
2011,09,11,19,16,21.30
2011,09,11,19,17,21.30
2011,09,11,19,18,21.20
2011,09,11,19,19,21.20
2011,09,11,19,20,21.20
2011,09,11,19,21,21.20
2011,09,11,19,22,21.10
2011,09,11,19,23,21.10
2011,09,11,19,24,21.00
2011,09,11,19,25,21.00
2011,09,11,19,26,21.00
2011,09,11,19,27,20.90
2011,09,11,19,28,20.90
2011,09,11,19,29,20.90
2011,09,11,19,30,20.90
2011,09,11,19,31,20.90
2011,09,11,19,32,20.80
2011,09,11,19,33,20.80
2011,09,11,19,34,20.80
2011,09,11,19,35,20.80
2011,09,11,19,36,20.80
2011,09,11,19,37,20.80
2011,09,11,19,38,20.70
2011,09,11,19,39,20.70
2011,09,11,19,40,20.70
2011,09,11,19,41,20.60
2011,09,11,19,42,20.60
2011,09,11,19,43,20.50
2011,09,11,19,44,20.40
2011,09,11,19,45,20.40
2011,09,11,19,46,20.40
2011,09,11,19,47,20.30
2011,09,11,19,48,20.30
2011,09,11,19,49,20.20
2011,09,11,19,50,20.10
2011,09,11,19,51,20.10
2011,09,11,19,52,20.10
2011,09,11,19,53,20.00
2011,09,11,19,54,20.00
2011,09,11,19,55,19.90
2011,09,11,19,56,19.90
2011,09,11,19,57,19.90
2011,09,11,19,58,19.80
2011,09,11,19,59,19.80
2011,09,11,20,00,19.70
2011,09,11,20,01,19.70
2011,09,11,20,02,19.70
2011,09,11,20,03,19.70
2011,09,11,20,04,19.60
2011,09,11,20,05,19.60
2011,09,11,20,06,19.60
2011,09,11,20,07,19.60
2011,09,11,20,08,19.50
2011,09,11,20,09,19.50
2011,09,11,20,10,19.40
2011,09,11,20,11,19.40
2011,09,11,20,12,19.30
2011,09,11,20,13,19.30
2011,09,11,20,14,19.30
2011,09,11,20,15,19.20
2011,09,11,20,16,19.20
2011,09,11,20,17,19.10
2011,09,11,20,18,19.10
2011,09,11,20,19,19.00
2011,09,11,20,20,18.90
2011,09,11,20,21,18.90
2011,09,11,20,22,18.90
2011,09,11,20,23,18.80
2011,09,11,20,24,18.80
2011,09,11,20,25,18.80
2011,09,11,20,26,18.70
2011,09,11,20,27,18.70
2011,09,11,20,28,18.70
2011,09,11,20,29,18.60
2011,09,11,20,30,18.60
2011,09,11,20,31,18.60
2011,09,11,20,32,18.50
2011,09,11,20,33,18.50
2011,09,11,20,34,18.50
2011,09,11,20,35,18.40
2011,09,11,20,36,18.40
2011,09,11,20,37,18.40
2011,09,11,20,38,18.40
2011,09,11,20,39,18.30
2011,09,11,20,40,18.30
2011,09,11,20,41,18.30
2011,09,11,20,42,18.20
2011,09,11,20,43,18.20
2011,09,11,20,44,18.20
2011,09,11,20,45,18.10
2011,09,11,20,46,18.10
2011,09,11,20,47,18.10
2011,09,11,20,48,18.10
2011,09,11,20,49,18.10
2011,09,11,20,50,18.00
2011,09,11,20,51,18.00
2011,09,11,20,52,17.90
2011,09,11,20,53,17.90
2011,09,11,20,54,17.90
2011,09,11,20,55,17.90
2011,09,11,20,56,17.80
2011,09,11,20,57,17.80
2011,09,11,20,58,17.80
2011,09,11,20,59,17.80